STARLINK-31860, 59670

Orbit data source: Space-Track

STARLINK-31860, 59670 is a payload satellite owned by SpaceX/Seattle (US) in LEO that was launched on Mon, 06 May 2024 UTC via an FALCON 9 launch vehicle from the Air Force Eastern Test Range (AFETR). Payload-class satellites include a variety of spacecraft equipped with specific instruments for various scientific and technological missions. These include communications satellites like Starlink; space stations such as the ISS; scientific satellites like the Hubble; Earth observation satellites from companies like Planet Labs, Umbra, and HawkEye 360; GPS; miniature CubeSats for education and research; and military/defense satellites.

Loading next visibility...
Identifier
59670, 2024-084S
Orbit
LEO
Country
Flag of USUS
Related business
Manufacturer
SpaceX/Seattle
Mission
Operational Commercial Communications
Bus & Motor
STARLINK V2M, Unknown motor
Mass
730 kg wet, ~700 kg dry
Launch date (UTC)
2024-05-06 (1 year ago)
Launch vehicle
FALCON 9
Launch site
Air Force Eastern Test Range (AFETR)
Object type
Payload
Rocket body
Debris
Shape & HBR
Box + 2 Pan, 17.7 m
Radar Cross Section
33.884 m², Large (>1 m²)

Expand to show TLE details & history
Last TLE update: 20 hours ago

TLE from 20 hours ago
0 STARLINK-31860
1 59670U 24084S   25287.94573347 -.00001651  00000-0 -50525-4 0  9997
2 59670  43.0011 141.4038 0001287 269.8093  90.2611 15.27560396 82108
Epoch: 2025-10-14T22:41Z
TLE epoch observation values (Epoch: 2025-10-14T22:41:51.371Z)
Latitude
-0.00004°
Longitude
137.21283°
Altitude
482.887 km
Speed
7.626 km/s
True Right ascension
09h 25m 36s
True Declination
0° 00' 00"
Sunlit
Object was in daylight at epoch
Visualization orbit readout
Latitude
Unknown
Longitude
Unknown
Altitude
Unknown
Speed
Unknown
Apparent Right ascension
Unknown
Apparent Declination
Unknown
Sunlit
N/A
Visualization observer readout
Local Sidereal Time
13:44:25
Azimuth
Unknown
Elevation
Unknown
Doppler factor
Unknown
Orbital elements
Apogee altitude
485.936 km
Perigee altitude
484.169 km
Semi-major axis
6,863.19 km
Eccentricity
0.00013
Inclination
43.0011°
RAAN
141.4038°
Arg. of periapsis
269.8093°
True anomaly
90.27585°
Mean anomaly
90.2611°
Eccentric anomaly
90.26847°
Mean motion
3.81728 °/min
Orbital period
94.31 mins
BSTAR
-0.000050525
Loading maneuver chart data...
Computing Atmospheric mass density...
Loading historical data...
Loading historical data...
Loading historical data...
Loading historical data...
Loading historical data...
Loading historical data...
Loading historical data...

Documentation

Showing up to 5 results
|